FW2969 Weather Reports


time (UTC)temp
F
wind
direction
speed
knots
gust
knots
rain 1hr
in
rain 24hr
in
rain mn
in
humidity
%
barometer
mb
20260902113018 81 346 1.7 7.0 0.00 0.00 0.00 71 1009.6
20260902111513 81 301 1.7 6.1 0.00 0.00 0.00 70 1009.6
20260902110012 81 301 1.7 7.0 0.00 0.00 0.00 71 1009.7
20260902104513 81 236 1.7 7.0 0.00 0.00 0.00 70 1009.8
20260902103008 81 311 0.9 3.5 0.00 0.00 0.00 73 1009.9
20260902101507 80 320 1.7 7.8 0.00 0.00 0.00 74 1009.8
20260902100007 80 321 1.7 5.2 0.00 0.00 0.00 75 1009.9
20260902094505 80 308 0.9 5.2 0.00 0.00 0.00 74 1010.0
20260902093003 80 303 1.7 6.1 0.00 0.00 0.00 73 1010.2
20260902091508 80 327 0.9 3.5 0.00 0.00 0.00 73 1010.2
20260902090000 80 288 0.9 5.2 0.00 0.00 0.00 73 1010.3
20260902084700 80 294 1.7 4.3 0.00 0.00 0.00 72 1010.3
20260902083058 80 288 0.0 7.0 0.00 0.00 0.00 72 1010.4
20260902081557 80 315 1.7 5.2 0.00 0.00 0.00 69 1010.6
20260902080055 80 320 1.7 4.3 0.00 0.00 0.00 66 1010.7
20260902074608 80 325 0.0 3.5 0.00 0.00 0.00 61 1010.8
20260902073050 80 352 0.0 2.6 0.00 0.00 0.00 59 1010.7
20260902071547 79 332 0.0 2.6 0.00 0.00 0.00 59 1010.6
20260902070046 79 313 0.0 1.7 0.00 0.00 0.00 59 1010.5
20260902064547 79 324 0.9 3.5 0.00 0.00 0.00 57 1010.5
20260902063100 78 269 0.0 0.0 0.00 0.00 0.00 55 1010.5
20260902061541 77 269 0.0 1.7 0.00 0.00 0.00 53 1010.4
20260902060053 78 245 0.0 0.0 0.00 0.00 0.00 53 1010.3
20260902054540 78 109 0.0 0.0 0.00 0.00 0.00 54 1010.3
20260902053037 77 109 0.0 0.0 0.00 0.00 0.00 56 1010.3
20260902051543 75 109 0.0 0.9 0.00 0.00 0.00 59 1010.4
20260902050032 74 109 0.0 0.9 0.00 0.00 0.00 59 1010.4
20260902044526 73 109 0.0 1.7 0.00 0.00 0.00 60 1010.4
20260902043025 70 109 0.0 0.0 0.00 0.00 0.00 63 1010.5
20260902041540 68 109 0.0 0.0 0.00 0.00 0.00 65 1010.3
20260902040026 68 109 0.0 0.0 0.00 0.00 0.00 65 1010.1
20260902034523 68 109 0.0 0.9 0.00 0.00 0.00 65 1010.2
20260902033023 68 109 0.0 0.9 0.00 0.00 0.00 65 1010.1
20260902031522 67 109 0.0 0.0 0.00 0.00 0.00 65 1010.0
20260902030021 66 109 0.0 1.7 0.00 0.00 0.00 68 1010.1
20260902024520 66 110 0.0 0.0 0.00 0.00 0.00 69 1010.1
20260902023020 65 110 0.0 0.0 0.00 0.00 0.00 72 1010.1
20260902021523 65 110 0.0 0.0 0.00 0.00 0.00 75 1010.0
20260902020017 65 110 0.0 0.0 0.00 0.00 0.00 77 1010.0
20260902014523 66 110 0.0 0.0 0.00 0.00 0.00 79 1010.2
20260902013013 66 110 0.0 0.0 0.00 0.00 0.00 77 1010.2
20260902011513 67 110 0.0 0.0 0.00 0.00 0.00 75 1010.2
20260902010009 67 110 0.0 0.9 0.00 0.00 0.00 74 1010.1
20260902004514 67 110 0.0 0.9 0.00 0.01 0.00 71 1010.2
20260902003020 68 130 0.0 1.7 0.00 0.01 0.00 69 1010.0
20260902001505 68 147 0.0 2.6 0.00 0.01 0.00 68 1010.0
20260902000104 68 109 0.0 1.7 0.00 0.01 0.00 67 1009.8
20260901234557 70 37 0.0 0.9 0.00 0.01 0.00 65 1009.5
20260901233053 71 23 0.0 0.9 0.00 0.01 0.00 63 1009.6
20260901231600 71 23 0.0 0.0 0.00 0.01 0.00 62 1009.6
20260901230052 72 14 0.0 0.0 0.00 0.01 0.00 61 1009.4
20260901224551 73 20 0.0 4.3 0.00 0.01 0.00 59 1009.4
20260901223049 73 11 0.0 1.7 0.00 0.01 0.00 59 1009.5
20260901221546 72 335 0.0 1.7 0.00 0.01 0.00 60 1009.7
20260901220048 72 97 0.0 0.9 0.00 0.01 0.00 61 1010.0
20260901214543 72 97 0.0 0.9 0.00 0.01 0.00 59 1010.2
20260901213040 72 97 0.0 0.0 0.00 0.01 0.00 58 1010.2
20260901211539 72 97 0.0 0.9 0.00 0.01 0.00 58 1010.4
20260901210042 72 97 0.0 0.0 0.00 0.01 0.00 59 1010.5
20260901204535 72 97 0.0 0.0 0.00 0.01 0.01 60 1010.7
20260901203039 72 97 0.0 0.0 0.00 0.01 0.01 61 1010.7
20260901201535 72 97 0.0 0.0 0.00 0.01 0.01 61 1010.8
20260901200032 71 97 0.0 0.0 0.00 0.01 0.01 65 1010.8
20260901194533 70 97 0.0 0.0 0.00 0.01 0.01 71 1010.8
20260901193031 69 97 0.0 0.0 0.00 0.01 0.01 78 1010.8
20260901191536 69 97 0.0 0.0 0.00 0.01 0.01 82 1010.8
20260901190030 70 97 0.0 0.0 0.00 0.01 0.01 88 1010.8
20260901184529 70 97 0.0 0.0 0.00 0.01 0.01 90 1010.7
20260901183028 71 97 0.0 0.9 0.00 0.01 0.01 91 1010.7
20260901181532 71 97 0.0 1.7 0.00 0.01 0.01 91 1010.7
20260901180030 71 97 0.0 0.9 0.00 0.01 0.01 92 1010.6
20260901174525 71 97 0.0 1.7 0.00 0.01 0.01 92 1010.5
20260901173031 71 97 0.0 2.6 0.00 0.01 0.01 92 1010.3
20260901171524 71 311 0.0 0.9 0.00 0.01 0.01 92 1010.3
20260901170024 71 311 0.0 0.9 0.00 0.01 0.01 93 1010.2
20260901164523 71 311 0.0 0.9 0.00 0.01 0.01 92 1010.1
20260901163037 71 311 0.0 0.9 0.00 0.01 0.01 91 1010.0
20260901161523 72 311 0.0 0.9 0.00 0.01 0.01 91 1010.0
20260901160021 72 310 0.0 0.9 0.00 0.01 0.01 90 1010.0
20260901154533 73 310 0.0 0.9 0.00 0.01 0.01 89 1010.1
20260901153031 74 284 0.0 1.7 0.00 0.01 0.01 88 1010.1
20260901151521 74 272 0.0 1.7 0.00 0.01 0.01 87 1010.1
20260901150020 74 310 0.0 2.6 0.00 0.01 0.01 86 1010.0
20260901144521 75 300 0.9 5.2 0.00 0.01 0.01 86 1010.0
20260901143018 75 319 1.7 4.3 0.00 0.01 0.01 85 1010.1
20260901141519 75 281 0.0 7.0 0.00 0.01 0.01 84 1009.9
20260901140019 76 286 1.7 5.2 0.00 0.01 0.01 84 1010.0
20260901134517 76 298 1.7 7.0 0.00 0.01 0.01 83 1010.0
20260901133016 77 311 0.9 7.8 0.00 0.01 0.01 82 1010.0
20260901131516 78 288 2.6 5.2 0.00 0.01 0.01 80 1009.9
20260901130016 78 218 1.7 7.0 0.00 0.01 0.01 79 1009.9
20260901124514 78 295 1.7 6.1 0.00 0.01 0.01 79 1009.9
20260901123012 78 315 2.6 7.8 0.00 0.01 0.01 79 1010.0
20260901121512 78 275 0.9 8.7 0.00 0.01 0.01 79 1010.1
20260901120008 77 250 1.7 7.0 0.00 0.01 0.01 79 1010.2
20260901114507 77 259 2.6 7.8 0.00 0.01 0.01 80 1010.2